Regional Weather Roundup
Issued by NWS

Home | Current Version | Previous Version | Text Only | Print | Product List | Glossary On
Versions: 1 2 3 4 5 6 7 8 9 10 11 12 13 14 15 16 17 18 19 20 21 22 23 24 25 26 27 28 29 30 31 32 33 34 35 36 37 38 39 40 41 42 43 44 45 46 47 48 49 50
000
ASUS43 KDTX 010910
RWRMI
MICHIGAN HOURLY REGIONAL WEATHER ROUNDUP
NATIONAL WEATHER SERVICE DETROIT/PONTIAC MI
500 AM EDT WED OCT 01 2014

NOTE: "FAIR" INDICATES FEW OR NO CLOUDS BELOW 12,000 FEET WITH NO
SIGNIFICANT WEATHER AND/OR OBSTRUCTION TO VISIBILITY.

MIZ047>049-052>055-059>063-066>070-074>076-081>083-011000-
SOUTHEAST LOWER MICHIGAN

CITY           SKY/WX    TMP DP  RH WIND       PRES   REMARKS
ADRIAN         CLOUDY    48  48 100 CALM      30.03F
ALMA           FOG       51  50  97 N3        30.04F VSB 1
ANN ARBOR      CLOUDY    52  49  89 CALM      30.02S
BAD AXE        FOG       56  56 100 NE6       30.04R VSB 3/4
DETROIT CITY   CLOUDY    55  54  96 CALM      30.04R
DETROIT        CLOUDY    54  52  94 CALM      30.03R
FLINT          FOG       53  51  93 NW5       30.03S VSB 1/2
GROSSE ILE     CLOUDY    55  52  88 CALM      30.01R
HILLSDALE      CLOUDY    51  51 100 CALM      30.02S
HOWELL         CLOUDY    52  51  98 CALM      30.02S FOG

CITY           SKY/WX    TMP DP  RH WIND       PRES   REMARKS
JACKSON        CLOUDY    51  49  92 CALM      30.02F
LAMBERTVILLE   MOCLDY    46  45  93 CALM      30.02S FOG
LANSING        CLOUDY    50  49  96 N5        30.03F FOG
LAPEER         NOT AVBL
MASON          CLOUDY    50  49  97 CALM      30.03S FOG
MONROE         PTCLDY    48  46  93 CALM      30.01S
MT. CLEMENS    CLOUDY    54  54 100 SW2       30.00S FOG
PONTIAC        CLOUDY    53  51  93 CALM      30.01S
PORT HOPE        N/A     59  56  89 NE3       30.02S
PORT HURON     FOG       54  54 100 CALM      30.02R VSB 1/4
TRI CITIES     CLOUDY    53  51  93 N8        30.04F FOG
YPSILANTI      CLOUDY    56  51  84 NW5       30.03S
$$
MIZ043>046-050>051-056>058-064>065-071>073-077>080-011000-
SOUTHWEST LOWER MICHIGAN

CITY           SKY/WX    TMP DP  RH WIND       PRES   REMARKS
BATTLE CREEK   CLOUDY    52  48  86 E3        30.03S
BIG RAPIDS     CLOUDY    50  50 100 S5        30.04S
COLDWATER      CLOUDY    53  48  84 CALM      30.02S
HOLLAND        CLOUDY    54  48  80 E5        30.03
GRAND RAPIDS   CLOUDY    53  50  89 NE6       30.03F
KALAMAZOO      CLOUDY    52  46  80 SE5       30.03F
MARSHALL       CLOUDY    50  48  93 CALM      30.02F
MUSKEGON       CLOUDY    54  47  77 E5        30.03F
$$
MIZ016>042-011000-
NORTHERN LOWER MICHIGAN

CITY           SKY/WX    TMP DP  RH WIND       PRES   REMARKS
ALPENA         CLOUDY    52  52 100 N3        30.07R FOG
BEAVER ISLAND  CLOUDY    54  53  96 E6        30.05F
BELLAIRE       CLOUDY    51  49  92 E3        30.05F
CADILLAC       CLOUDY    48  48 100 E3        30.04S FOG
CHARLEVOIX     CLOUDY    52  51  98 CALM      30.08S
FRANKFORT      CLOUDY    52  49  90 CALM      30.05R
GAYLORD        FOG       50  49  96 E3        30.06S VSB 1
GRAYLING       FOG       50  50 100 E3        30.06S VSB 3/4
HARBOR SPRINGS CLOUDY    52  50  93 NE3       30.06S
HOUGHTON LAKE  CLOUDY    49  49 100 E5        30.05F FOG
OSCODA         DRIZZLE   54  54 100 NE5       30.05R
PELLSTON       CLOUDY    51  50  96 E3        30.07S
TRAVERSE CITY  CLOUDY    52  48  86 CALM      30.04S
$$
MIZ007>008-015-011000-
EASTERN UPPER MICHIGAN

CITY           SKY/WX    TMP DP  RH WIND       PRES   REMARKS
MACKINAC ISLAN CLOUDY    53  52  95 SE3       30.06F
NEWBERRY       CLOUDY    50  49  95 E5        30.06S
S. S. MARIE    CLOUDY    52  48  86 E3        30.08S
$$
MIZ004>006-011>014-085-011000-
CENTRAL UPPER MICHIGAN

CITY           SKY/WX    TMP DP  RH WIND       PRES   REMARKS
MANISTIQUE     CLOUDY    55  52  91 SE9       30.03F
SAWYER-GWINN   CLOUDY    46  45  95 S5        30.01F FOG
$$
MIZ001>003-009>011-084-011000-
WESTERN UPPER MICHIGAN

CITY           SKY/WX    TMP DP  RH WIND       PRES   REMARKS
IRON MOUNTAIN  FOG       47  46  97 S5        30.00S VSB 1
HOUGHTON       CLOUDY    48  44  86 SE7       29.96F
COPPER HARBOR    N/A     49  45  86 SW13G23   29.97F
$$

ABBREVIATIONS USED IN REMARKS
   TC - TEMPERATURE IN CELSIUS
  WCI - WIND CHILL INDEX
   HX - HEAT INDEX
  VSB - VISIBILITY




USA.gov is the U.S. government's official web portal to all federal, state and local government web resources and services.